Total_Precipitation_Accumulation
0.08 0.09 0.15 0.14 0.15 0.16 0.18 0.21 0.30 0.35 0.29 0.29 0.48 0.72 0.78 0.92 1.22 1.52 1.88 2.14 2.48 2.84 3.20 3.64 3.73 3.95 4.27 4.90 5.43 5.73 5.83 5.80 5.60 5.32 4.99 4.81 4.82 4.77 4.48 4.27 4.13 4.00 3.87 3.90
0.12 0.11 0.09 0.09 0.13 0.14 0.17 0.23 0.29 0.33 0.31 0.28 0.51 0.80 0.92 1.17 1.48 1.53 1.71 1.88 2.09 2.50 2.83 3.19 3.38 3.47 3.90 4.53 5.00 5.20 5.04 5.07 4.95 4.77 4.73 4.72 5.00 4.67 4.37 4.22 4.09 3.76 3.74 3.83
0.12 0.11 0.07 0.07 0.09 0.12 0.15 0.18 0.22 0.31 0.34 0.40 0.63 1.12 1.25 1.37 1.49 1.48 1.55 1.76 1.87 2.13 2.43 2.78 2.92 3.08 3.35 3.50 3.78 3.98 4.21 4.25 4.21 4.26 4.23 4.33 4.56 4.39 4.28 4.17 4.07 3.64 3.45 3.44
0.08 0.07 0.08 0.09 0.09 0.11 0.15 0.14 0.14 0.21 0.34 0.57 0.74 1.44 1.63 1.53 1.54 1.61 1.56 1.55 1.77 2.08 2.10 2.21 2.46 2.62 2.91 3.12 3.35 3.45 3.54 3.74 3.86 3.99 3.90 3.77 3.66 3.67 3.69 3.77 3.71 3.67 3.50 3.39
0.09 0.07 0.07 0.10 0.09 0.09 0.11 0.11 0.13 0.24 0.39 0.56 0.70 1.14 1.59 1.83 1.84 1.61 1.51 1.37 1.55 1.72 1.66 1.62 1.82 2.01 2.28 2.58 2.87 3.05 3.11 3.29 3.61 3.76 3.72 3.70 3.46 3.41 3.45 3.52 3.56 3.56 3.48 3.37
0.08 0.07 0.07 0.07 0.07 0.08 0.09 0.14 0.23 0.43 0.64 0.93 0.81 0.99 1.52 1.82 2.01 1.72 1.44 1.32 1.41 1.37 1.35 1.49 1.67 1.81 1.98 2.31 2.51 2.64 2.77 2.88 3.13 3.35 3.48 3.58 3.49 3.36 3.32 3.32 3.32 3.30 3.32 3.20
0.14 0.14 0.11 0.08 0.08 0.10 0.11 0.23 0.70 1.16 1.45 1.44 0.96 1.00 1.43 1.40 1.39 1.43 1.35 1.33 1.34 1.26 1.22 1.27 1.38 1.57 1.78 2.05 2.23 2.34 2.44 2.53 2.58 2.72 2.95 3.16 3.20 3.18 3.00 2.89 2.93 2.92 2.74 2.67
0.19 0.26 0.17 0.11 0.11 0.12 0.15 0.24 0.77 1.19 1.24 1.23 1.06 1.33 1.73 1.38 1.25 1.18 1.23 1.31 1.27 1.14 1.14 1.22 1.31 1.38 1.48 1.70 1.97 2.08 2.16 2.27 2.41 2.47 2.61 2.79 2.83 2.79 2.59 2.68 2.66 2.58 2.35 2.28
0.14 0.14 0.11 0.09 0.11 0.15 0.21 0.24 0.34 0.65 0.76 0.94 1.15 1.46 1.69 1.35 1.27 1.39 1.47 1.43 1.36 1.10 0.99 1.05 1.06 1.15 1.21 1.33 1.50 1.66 1.89 2.04 2.18 2.34 2.45 2.47 2.42 2.48 2.45 2.53 2.65 2.47 2.42 2.27
0.10 0.10 0.10 0.10 0.11 0.15 0.20 0.21 0.29 0.58 0.84 1.05 1.15 1.57 1.89 1.79 1.58 1.48 1.53 1.38 1.12 0.97 0.89 0.84 0.83 0.89 1.01 1.17 1.33 1.55 1.73 1.76 1.92 2.17 2.24 2.13 2.36 2.43 2.41 2.43 2.36 2.33 2.37 2.33
0.08 0.09 0.10 0.13 0.15 0.17 0.23 0.27 0.37 0.56 0.63 0.92 1.33 1.56 1.48 1.47 1.34 1.37 1.34 1.18 0.99 0.88 0.87 0.83 0.82 0.87 0.94 1.03 1.24 1.49 1.84 2.01 1.97 1.99 2.11 2.21 2.28 2.37 2.38 2.29 2.15 2.20 2.27 2.29
0.10 0.10 0.15 0.20 0.21 0.21 0.21 0.25 0.36 0.56 0.56 0.63 0.97 1.26 0.87 0.90 0.91 1.00 1.05 0.92 0.88 0.87 0.83 0.89 0.94 0.94 0.95 1.06 1.29 1.50 1.69 1.88 1.93 2.07 2.32 2.45 2.34 2.30 2.33 2.26 2.12 2.02 1.99 2.06
0.13 0.14 0.23 0.45 0.54 0.35 0.24 0.22 0.26 0.33 0.37 0.46 0.82 1.05 0.68 0.75 0.88 1.00 1.10 1.13 1.10 1.01 0.85 0.87 1.09 1.17 1.05 1.13 1.33 1.59 1.76 1.91 2.05 2.23 2.45 2.54 2.38 2.27 2.28 2.21 2.02 1.90 1.82 1.86
0.14 0.18 0.26 0.54 0.62 0.49 0.35 0.29 0.26 0.30 0.40 0.40 0.49 0.73 0.70 0.77 0.94 1.05 1.13 1.17 1.06 0.98 0.95 0.99 1.11 1.14 1.25 1.30 1.43 1.66 1.72 1.90 1.98 1.98 2.16 2.33 2.24 2.09 1.99 1.98 1.95 1.93 1.92 1.88
0.12 0.15 0.17 0.23 0.30 0.36 0.38 0.32 0.27 0.24 0.28 0.42 0.44 0.54 0.67 0.81 0.84 1.04 1.08 1.06 1.08 1.02 1.00 1.06 1.19 1.17 1.15 1.19 1.21 1.32 1.37 1.57 1.58 1.64 1.73 1.83 1.80 1.81 1.77 1.73 1.68 1.74 1.81 1.77
0.25 0.23 0.20 0.21 0.24 0.27 0.30 0.31 0.24 0.19 0.18 0.21 0.37 0.64 0.67 0.71 0.77 0.93 0.95 0.95 1.06 1.16 1.13 1.15 1.21 1.31 1.17 1.10 1.07 1.04 1.12 1.31 1.48 1.60 1.53 1.55 1.63 1.57 1.54 1.57 1.57 1.62 1.71 1.82
0.43 0.39 0.35 0.31 0.28 0.35 0.39 0.32 0.26 0.20 0.20 0.21 0.41 0.70 0.72 0.77 0.86 0.98 1.05 1.06 1.01 1.02 1.09 1.18 1.26 1.27 1.08 1.05 1.04 1.07 1.10 1.22 1.36 1.47 1.56 1.64 1.69 1.64 1.59 1.65 1.76 1.77 1.92 2.00
0.48 0.53 0.48 0.43 0.51 0.66 0.47 0.32 0.31 0.36 0.32 0.31 0.38 0.48 0.57 0.74 0.81 0.86 0.92 1.12 1.20 1.15 1.23 1.27 1.25 1.21 1.16 1.10 1.12 1.13 1.13 1.21 1.35 1.41 1.53 1.67 1.72 1.67 1.70 1.71 1.73 1.86 2.06 2.14
0.38 0.56 0.59 0.56 0.67 0.59 0.50 0.43 0.41 0.49 0.57 0.48 0.57 0.55 0.60 0.71 0.81 0.98 0.92 1.01 0.98 1.12 1.18 1.23 1.26 1.25 1.27 1.23 1.31 1.31 1.25 1.32 1.47 1.61 1.70 1.69 1.76 1.81 1.87 1.92 1.98 2.08 2.16 2.18
0.48 0.62 0.78 0.72 0.86 0.89 0.77 0.66 0.58 0.62 1.00 0.75 0.73 0.75 0.85 0.90 1.11 1.38 1.21 1.05 1.04 1.14 1.12 1.15 1.16 1.21 1.29 1.29 1.44 1.55 1.56 1.56 1.64 1.81 1.95 1.98 2.10 2.23 2.23 2.35 2.47 2.48 2.46 2.39
1.01 1.01 0.93 0.93 1.05 1.07 0.84 0.73 0.71 1.22 1.46 0.94 0.85 0.90 0.91 0.98 1.12 1.19 1.23 1.23 1.16 1.01 0.97 1.02 1.10 1.10 1.23 1.43 1.63 1.79 1.81 1.76 1.84 1.99 2.17 2.35 2.48 2.70 2.86 2.96 2.88 2.79 2.77 2.75
1.19 1.29 1.27 1.29 1.49 1.43 0.91 0.84 1.22 1.54 1.23 1.22 1.07 1.00 1.02 0.98 1.05 1.14 1.20 1.24 1.08 1.03 1.00 1.04 1.15 1.17 1.24 1.47 1.67 1.85 1.91 1.94 2.13 2.28 2.46 2.60 2.82 2.92 3.05 3.45 3.48 3.46 3.37 3.08
1.34 1.42 1.43 1.48 1.58 1.32 1.13 1.28 1.40 1.40 1.39 1.44 1.45 1.27 1.19 1.12 1.13 1.20 1.16 1.10 1.03 1.04 1.00 1.05 1.21 1.34 1.40 1.55 1.80 2.08 2.12 2.17 2.31 2.46 2.68 2.84 2.92 3.06 3.21 3.38 3.38 3.38 3.31 3.05
1.52 1.30 1.49 1.66 1.73 1.51 1.44 1.44 1.49 1.52 1.45 1.43 1.53 1.67 1.67 1.42 1.27 1.28 1.24 1.15 1.15 1.20 1.15 1.18 1.31 1.48 1.67 1.82 2.03 2.29 2.34 2.45 2.52 2.58 2.70 2.80 2.90 3.03 3.22 3.38 3.33 3.27 3.20 3.15
1.53 1.60 1.83 2.12 2.08 1.91 1.73 1.72 1.82 1.72 1.62 1.64 1.66 1.74 1.83 1.51 1.28 1.23 1.33 1.30 1.30 1.40 1.44 1.43 1.50 1.64 1.87 2.03 2.21 2.33 2.37 2.55 2.71 2.68 2.72 2.83 2.85 2.89 3.03 3.12 3.23 3.15 3.07 3.10
1.56 1.81 2.17 2.43 2.18 2.23 2.05 1.75 1.83 1.93 1.78 1.79 1.75 1.70 1.59 1.49 1.42 1.45 1.48 1.45 1.45 1.56 1.61 1.63 1.65 1.77 1.96 2.14 2.33 2.42 2.54 2.69 2.84 2.88 2.79 2.82 2.85 2.86 2.87 2.85 2.75 2.75 2.71 2.68